Wind_Speed
41 42 42 41 41 40 38 37 37 36 35 36 36 38 41 44 46 46 45 44 43 42 42 43 44 44 44 44 44 44 44 44 44 44 43 44 44 45 47 47 47 46
38 39 39 39 38 37 36 36 35 34 34 35 36 38 40 44 47 50 51 50 49 48 47 46 46 46 46 46 47 47 47 47 47 47 47 47 47 47 49 50 51 51
34 35 35 34 34 33 33 34 34 34 35 35 37 38 39 41 44 47 50 52 52 50 48 47 46 45 45 46 47 48 48 48 48 49 50 50 50 50 51 53 54 56
31 31 30 29 29 29 30 31 33 34 36 38 40 41 42 43 44 45 46 48 49 49 48 48 47 47 47 48 48 48 49 49 50 51 51 51 52 53 53 53 55 56
28 28 27 27 26 26 27 29 30 33 34 36 39 41 44 46 47 48 48 49 50 50 51 51 51 51 52 52 53 53 54 54 54 55 56 56 56 57 57 57 57 58
28 27 27 27 27 27 28 28 29 30 32 34 35 37 39 41 43 45 47 49 50 51 52 53 54 54 55 55 56 57 57 58 59 60 61 61 62 62 62 62 62 63
29 28 29 29 29 30 30 31 32 32 33 34 35 36 37 38 39 41 42 44 46 47 49 50 51 52 53 54 55 56 56 57 57 58 58 59 59 60 60 60 61 62
31 31 31 31 31 31 32 33 34 35 36 37 37 38 39 40 41 42 43 44 45 46 47 48 49 50 52 52 53 54 55 55 55 55 56 56 57 57 58 58 58 59
33 33 33 34 34 34 35 35 36 37 38 39 40 41 42 43 44 45 46 46 47 48 49 51 52 53 54 55 56 56 57 57 58 58 59 59 59 60 60 60 61 61
36 36 36 37 37 37 38 39 40 40 41 42 43 44 45 46 47 48 48 49 50 51 53 54 55 56 57 58 58 59 60 60 61 61 62 62 62 63 63 63 64 64
38 38 39 39 39 40 41 42 43 44 45 46 46 47 48 49 50 51 52 52 53 54 55 57 58 58 59 60 61 61 62 62 63 64 64 64 64 65 65 66 66 66
40 40 41 42 43 43 44 45 46 47 48 49 50 51 51 52 53 53 54 55 56 56 57 59 60 60 61 62 63 63 63 63 64 65 65 65 65 66 67 67 67 67
42 43 44 45 46 46 47 48 49 49 50 51 52 53 53 54 54 55 56 57 58 59 59 60 61 61 62 63 64 64 64 64 65 66 66 66 67 67 67 67 68 68
44 45 45 46 47 48 48 49 50 50 51 52 53 53 54 55 55 56 57 58 59 60 61 61 62 62 62 63 64 64 63 64 64 65 65 65 65 65 65 65 65 66
45 46 47 47 48 48 49 50 50 51 52 53 53 54 54 55 56 57 58 59 59 60 61 62 62 62 61 61 61 61 61 61 63 63 63 63 63 64 64 63 63 64
46 47 48 49 49 50 50 51 52 52 53 53 54 55 55 56 57 57 58 58 59 59 60 60 60 60 59 59 60 60 60 60 62 63 63 63 62 63 63 63 63 63
47 48 49 50 51 51 52 53 53 54 54 54 55 55 56 56 56 56 57 57 58 58 59 59 59 59 59 59 60 61 61 61 61 62 63 63 62 62 62 63 63 62
48 49 50 51 52 53 53 54 54 53 53 54 55 55 55 55 55 56 57 58 58 59 59 59 60 60 60 60 61 61 61 60 60 61 62 62 61 61 61 62 62 62
49 49 50 51 52 53 54 54 53 53 53 54 54 55 54 54 56 57 58 59 58 59 59 59 60 60 60 60 60 61 61 60 60 61 61 62 63 62 61 62 62 63
49 48 49 50 50 51 53 53 53 54 54 54 54 55 55 56 58 59 59 59 59 59 59 59 59 60 59 59 60 61 61 61 61 61 62 63 65 64 63 63 64 64
49 48 50 50 50 51 52 53 55 56 54 54 54 56 58 59 60 60 59 59 59 58 58 58 59 59 59 59 59 61 61 62 62 62 62 64 67 67 66 66 67 67
50 49 50 51 51 52 53 54 55 55 54 55 57 58 60 60 60 60 60 59 59 58 58 58 59 59 59 58 59 61 62 63 63 64 65 67 69 70 70 69 70 69
52 51 50 51 52 53 53 53 53 54 56 58 59 59 60 60 60 59 59 58 58 58 58 58 59 59 59 59 60 62 64 65 66 67 68 69 70 71 71 70 70 69
54 53 53 53 52 52 52 53 55 57 58 58 59 59 59 59 58 58 58 58 58 58 58 59 60 60 60 61 62 64 66 67 68 68 68 69 69 69 69 68 67 66
55 55 54 52 51 52 54 57 59 59 58 58 58 58 57 57 57 57 58 59 59 59 60 60 61 62 62 63 65 66 67 68 68 68 66 66 65 65 64 63 62 62
56 55 53 53 54 56 58 59 59 58 57 57 56 56 56 57 57 57 59 60 60 61 62 62 63 64 64 65 66 67 68 68 68 66 63 61 59 59 59 59 59 59
Wind_Direction
264 266 268 270 271 272 273 273 274 274 273 273 270 264 260 259 260 261 263 263 263 263 263 263 264 265 265 266 267 267 266 264 263 262 259 258 257 257 258 259 259 258
264 265 266 267 268 268 269 269 270 270 269 269 268 266 263 260 259 260 263 265 266 267 267 267 267 267 268 268 269 269 267 265 263 262 260 259 259 258 258 259 262 262
265 265 265 266 267 268 268 269 269 268 265 263 262 263 263 263 261 261 262 264 267 268 269 268 268 267 267 267 267 267 266 265 264 263 263 262 261 261 259 259 261 263
266 266 266 268 269 270 270 270 270 270 268 264 262 261 261 262 262 262 263 263 265 266 267 267 267 266 266 266 265 265 265 264 264 264 264 263 263 263 262 261 261 261
266 266 266 268 269 270 271 272 272 272 271 269 267 265 264 263 263 264 264 264 265 266 267 268 267 267 267 267 267 267 266 266 265 265 265 265 265 264 264 263 262 262
267 267 268 269 270 271 271 272 272 272 272 272 271 270 269 268 267 267 267 266 266 267 268 269 269 269 269 268 268 268 267 267 267 267 266 266 266 265 265 264 264 263
269 269 269 270 271 272 272 272 272 272 272 271 271 271 271 271 270 269 269 268 268 268 268 268 268 268 268 268 268 268 267 267 267 267 267 267 267 266 266 265 264 263
268 268 269 269 270 271 272 272 273 273 273 272 272 272 272 272 272 272 271 271 270 269 269 268 268 268 267 267 268 268 268 268 268 268 268 268 268 268 267 266 266 265
267 267 267 268 269 269 270 270 271 272 272 272 273 273 273 273 273 272 271 271 270 270 269 269 268 268 268 268 268 269 269 270 270 270 269 269 268 268 268 267 267 266
267 267 267 267 267 268 268 269 270 270 271 272 272 273 273 273 272 272 271 271 271 270 270 269 269 270 270 270 270 270 270 270 270 270 270 270 269 269 268 267 267 266
268 269 269 269 268 268 269 270 271 271 272 273 273 274 274 274 273 273 273 273 273 272 272 272 271 271 271 270 270 270 270 270 271 270 270 270 269 269 268 267 267 266
270 270 270 270 270 270 271 271 272 273 273 274 275 275 275 275 275 275 275 275 275 274 274 273 273 273 273 272 272 271 271 271 271 271 270 269 269 268 268 268 267 267
272 272 272 272 272 272 273 273 274 275 275 275 276 276 276 276 277 277 277 277 277 277 276 276 275 275 275 275 274 274 273 273 272 271 271 270 270 270 269 269 269 268
277 277 277 276 276 277 277 278 278 278 278 278 278 278 278 279 279 279 279 279 279 279 279 279 278 278 277 277 276 276 276 275 274 274 273 273 273 272 271 271 270 270
282 282 282 281 281 281 281 281 281 281 281 280 280 280 280 280 280 280 280 280 280 280 280 280 280 280 279 278 278 278 277 277 277 277 276 276 275 275 275 274 273 272
284 283 283 283 283 283 284 283 283 282 282 282 282 282 282 282 282 282 282 282 282 282 281 281 281 281 281 280 280 280 280 280 279 279 279 279 278 278 277 276 275 274
283 283 283 283 283 283 283 283 283 283 283 283 283 283 283 283 284 284 284 284 284 284 283 283 283 283 283 283 282 282 282 282 281 280 280 280 279 278 278 277 277 276
283 282 282 281 282 282 281 281 282 282 283 283 284 285 285 285 286 286 287 286 286 285 285 284 284 284 284 284 284 283 283 283 282 282 281 281 281 280 279 279 279 278
282 282 281 281 281 281 280 281 281 282 283 285 285 285 285 285 287 288 287 286 286 285 285 284 284 284 285 285 285 285 285 285 285 284 285 285 284 283 282 282 281 280
283 283 282 282 282 282 281 281 281 283 285 286 285 284 284 286 288 288 287 287 286 286 286 285 285 285 286 286 286 286 287 287 287 287 287 287 286 285 285 284 283 282
285 284 283 283 283 282 282 282 283 285 286 286 286 286 286 287 288 288 288 288 288 287 287 287 287 287 288 288 288 288 288 288 288 289 289 288 288 287 286 285 284 283
285 285 284 283 282 282 283 284 285 285 286 287 288 288 288 289 289 289 289 289 289 289 290 290 290 290 290 291 291 290 290 290 290 291 290 289 288 288 287 286 285 283
286 286 284 282 282 283 285 285 285 287 288 290 290 289 289 290 290 290 291 291 291 292 292 292 292 292 292 292 292 292 292 292 292 291 290 289 288 288 287 286 285 283
286 284 283 283 283 284 285 287 289 291 291 291 290 290 290 291 292 292 293 293 294 294 294 294 293 293 293 293 293 293 292 292 292 291 290 289 288 287 287 286 284 283
285 284 284 285 286 287 288 290 292 292 291 291 291 292 293 293 294 295 295 296 296 295 295 295 294 294 294 294 294 294 294 293 292 291 290 289 288 288 287 286 285 283
286 286 288 289 290 290 291 292 292 292 293 293 294 294 295 296 297 298 298 297 297 297 297 296 296 296 296 296 296 295 295 294 293 292 291 290 289 288 287 286 285 284
Height
10949 10948 10948 10947 10946 10946 10946 10945 10946 10946 10946 10947 10948 10948 10949 10949 10949 10949 10949 10949 10949 10949 10950 10950 10950 10950 10950 10950 10950 10950 10950 10951 10950 10950 10950 10950 10950 10949 10948 10948 10948 10949
10946 10945 10945 10944 10944 10943 10943 10943 10943 10943 10943 10943 10943 10944 10944 10944 10944 10944 10944 10944 10944 10944 10945 10945 10945 10945 10945 10944 10944 10944 10944 10945 10945 10944 10944 10944 10944 10944 10943 10943 10942 10942
10943 10942 10942 10941 10940 10940 10939 10939 10939 10940 10940 10940 10940 10940 10940 10940 10940 10940 10940 10940 10940 10940 10940 10940 10940 10939 10939 10939 10939 10939 10938 10939 10938 10938 10938 10938 10938 10938 10938 10938 10937 10936
10941 10940 10939 10938 10938 10937 10937 10936 10936 10936 10936 10936 10936 10936 10936 10936 10936 10936 10936 10936 10936 10935 10935 10935 10934 10934 10933 10933 10933 10933 10932 10932 10932 10931 10931 10931 10932 10931 10931 10932 10931 10931
10938 10938 10937 10936 10936 10935 10935 10934 10934 10934 10933 10933 10933 10933 10932 10932 10932 10932 10931 10931 10931 10930 10929 10929 10928 10928 10927 10927 10926 10926 10926 10925 10925 10924 10924 10924 10925 10924 10924 10925 10925 10924
10936 10936 10935 10934 10934 10933 10933 10932 10931 10931 10931 10930 10929 10929 10928 10928 10927 10927 10926 10925 10925 10924 10923 10922 10922 10921 10920 10920 10919 10919 10918 10918 10917 10917 10916 10916 10916 10916 10916 10916 10917 10916
10934 10933 10933 10932 10931 10931 10930 10929 10929 10928 10927 10926 10926 10925 10924 10923 10922 10922 10921 10920 10919 10918 10917 10916 10916 10915 10914 10913 10912 10912 10911 10911 10910 10910 10909 10908 10908 10907 10907 10908 10907 10907
10931 10931 10930 10929 10929 10928 10927 10926 10925 10924 10923 10922 10921 10921 10920 10918 10918 10917 10916 10915 10914 10913 10912 10911 10910 10909 10908 10907 10906 10905 10904 10904 10903 10903 10902 10901 10900 10899 10899 10899 10899 10898
10928 10927 10927 10926 10925 10924 10923 10922 10921 10920 10919 10918 10917 10916 10915 10914 10913 10912 10910 10909 10908 10907 10906 10905 10904 10903 10901 10901 10900 10899 10898 10897 10897 10896 10895 10894 10893 10892 10891 10891 10890 10889
10924 10923 10923 10922 10921 10920 10919 10918 10917 10915 10914 10913 10912 10911 10910 10909 10907 10906 10905 10904 10903 10901 10900 10899 10898 10896 10895 10894 10893 10892 10891 10890 10889 10888 10887 10886 10885 10884 10884 10883 10882 10881
10920 10919 10918 10917 10916 10915 10914 10913 10911 10910 10909 10908 10907 10905 10904 10902 10901 10899 10898 10897 10896 10895 10894 10892 10891 10889 10888 10887 10885 10884 10883 10882 10881 10879 10878 10878 10876 10875 10874 10873 10873 10872
10915 10914 10913 10911 10910 10909 10908 10907 10906 10905 10903 10901 10900 10899 10897 10896 10894 10893 10891 10890 10889 10887 10886 10884 10882 10881 10879 10877 10876 10875 10875 10873 10872 10870 10869 10868 10867 10866 10864 10863 10863 10862
10909 10908 10907 10906 10904 10903 10902 10901 10900 10898 10897 10895 10894 10892 10890 10889 10887 10886 10884 10882 10881 10879 10877 10875 10874 10873 10871 10869 10867 10866 10865 10864 10862 10860 10859 10858 10857 10856 10855 10854 10853 10852
10904 10903 10902 10900 10899 10898 10897 10895 10894 10892 10891 10889 10887 10885 10883 10882 10880 10879 10877 10875 10873 10871 10869 10867 10865 10864 10863 10861 10858 10857 10856 10854 10852 10850 10849 10848 10847 10845 10845 10844 10843 10842
10899 10897 10896 10894 10893 10892 10891 10889 10888 10886 10884 10882 10880 10878 10877 10875 10873 10871 10869 10867 10865 10863 10861 10858 10856 10855 10853 10852 10849 10848 10847 10845 10842 10840 10839 10838 10837 10835 10834 10833 10832 10831
10893 10892 10890 10888 10887 10885 10884 10882 10880 10879 10877 10875 10874 10872 10870 10868 10865 10864 10862 10859 10857 10855 10853 10850 10848 10846 10844 10842 10840 10838 10837 10836 10833 10830 10828 10828 10827 10825 10823 10822 10821 10820
10888 10886 10884 10882 10881 10879 10877 10875 10873 10871 10870 10868 10866 10864 10862 10860 10858 10856 10854 10852 10849 10847 10844 10842 10839 10836 10835 10833 10830 10828 10827 10826 10824 10821 10818 10817 10817 10815 10813 10811 10809 10808
10883 10881 10879 10877 10875 10873 10871 10869 10867 10865 10863 10861 10859 10857 10855 10853 10851 10849 10846 10843 10841 10838 10836 10833 10830 10827 10826 10824 10822 10819 10817 10816 10814 10812 10809 10807 10806 10805 10803 10800 10798 10797
10877 10875 10873 10871 10869 10867 10865 10863 10861 10859 10857 10854 10852 10850 10848 10846 10843 10841 10838 10835 10833 10831 10828 10825 10822 10819 10817 10815 10813 10810 10807 10806 10804 10801 10799 10796 10794 10792 10791 10790 10787 10785
10872 10870 10868 10865 10863 10861 10859 10857 10854 10852 10850 10848 10845 10843 10841 10839 10836 10834 10831 10828 10825 10823 10820 10816 10813 10810 10809 10807 10804 10801 10797 10795 10793 10791 10789 10785 10781 10779 10779 10777 10775 10773
10867 10864 10862 10860 10857 10854 10852 10850 10848 10846 10844 10841 10838 10836 10834 10831 10828 10826 10823 10820 10817 10814 10811 10808 10804 10802 10800 10798 10795 10791 10787 10785 10783 10781 10779 10775 10770 10767 10766 10765 10762 10760
10861 10859 10857 10854 10851 10848 10846 10844 10841 10839 10837 10834 10831 10828 10826 10823 10821 10818 10814 10811 10808 10805 10802 10799 10795 10792 10790 10788 10785 10781 10777 10774 10772 10770 10768 10764 10759 10755 10753 10752 10749 10746
10856 10853 10850 10847 10845 10842 10840 10837 10835 10833 10831 10828 10824 10821 10818 10815 10812 10809 10805 10802 10799 10796 10793 10790 10786 10783 10781 10779 10775 10771 10767 10764 10761 10760 10757 10753 10748 10744 10741 10739 10736 10733
10850 10847 10844 10841 10839 10836 10834 10831 10829 10827 10824 10821 10817 10814 10810 10807 10804 10800 10796 10793 10790 10787 10783 10781 10777 10773 10771 10769 10766 10761 10757 10753 10751 10749 10746 10741 10737 10733 10730 10727 10724 10721
10844 10841 10838 10836 10833 10830 10828 10825 10822 10820 10817 10813 10810 10806 10802 10798 10795 10792 10787 10783 10780 10777 10774 10771 10768 10764 10761 10759 10755 10750 10746 10742 10738 10736 10734 10730 10726 10722 10718 10715 10712 10709
10838 10836 10833 10829 10826 10823 10821 10818 10816 10812 10809 10805 10801 10797 10793 10789 10786 10783 10778 10774 10770 10767 10763 10760 10757 10754 10750 10747 10744 10740 10734 10729 10725 10722 10721 10719 10716 10712 10708 10704 10701 10698